Regional Weather Roundup
Issued by NWS Upton, NY

Current Version | Previous Version | Graphics & Text | Print | Product List | Glossary Off
Versions: 1 2 3 4 5 6 7 8 9 10 11 12 13 14 15 16 17 18 19 20 21 22 23 24 25 26 27 28 29 30 31 32 33 34 35 36 37 38 39 40 41 42 43 44 45 46 47 48 49 50

852
ASUS41 KOKX 201308
RWROKX

REGIONAL WEATHER ROUNDUP
NATIONAL WEATHER SERVICE NEW YORK NY
800 AM EST FRI JAN 20 2017

NOTE: "FAIR" INDICATES FEW OR NO CLOUDS BELOW 12,000 FEET WITH NO
SIGNIFICANT WEATHER AND/OR OBSTRUCTIONS TO VISIBILITY.

NYZ071-072-176-178-NJZ106-104-201400-
NEW YORK CITY METRO AREA

CITY           SKY/WX    TMP DP  RH WIND       PRES   REMARKS
Central Park   CLOUDY    40  31  70 NE6       30.03R
Wall St Helipt CLOUDY    41  32  70 NE7       30.02S
Bronx Bot Gard NOT AVBL
LaGuardia APRT CLOUDY    41  31  67 NE7       30.01R
Kennedy INTL   CLOUDY    42  29  59 NE6       30.02S
Breezy Point     N/A     39 N/A N/A NE3         N/A
Newark/Liberty CLOUDY    42  32  67 VRB3      30.01R
Teterboro      CLOUDY    41  31  67 NE3       30.00S
$$

NYZ177-179-078>081-201400-
LONG ISLAND NEW YORK

CITY           SKY/WX    TMP DP  RH WIND       PRES   REMARKS
Jones Beach      N/A     39 N/A N/A NE7         N/A  WCI  34
Matinecock PT  NOT AVBL
Farmingdale    CLOUDY    40  31  70 E3        30.01R
MacArthur/ISP  CLOUDY    40  33  76 NE6       30.01S
Shirley        CLOUDY    39  34  82 CALM      30.02S
Westhampton    CLOUDY    40  33  76 CALM      30.02F
Southampton    NOT AVBL
Bridgehampton  NOT AVBL
East Hampton   CLOUDY    37  34  87 CALM      30.01S
Montauk          N/A     41  32  70 CALM      30.02F
$$

NYZ052-065-067-201400-
HUDSON VALLEY

CITY           SKY/WX    TMP DP  RH WIND       PRES   REMARKS
White Plains   CLOUDY    38  30  73 CALM      29.99R
Newburgh       CLOUDY    37  30  75 SE6       30.00S WCI  33
Montgomery     CLOUDY    38  30  73 CALM      29.98S
Poughkeepsie   CLOUDY    35  30  82 CALM      30.00S
Albany         CLOUDY    34  32  92 CALM      30.00S
$$

NJZ001-105-106-008-010-013-015-019>022-104-201400-
NEW JERSEY

CITY           SKY/WX    TMP DP  RH WIND       PRES   REMARKS
Newark/Liberty CLOUDY    42  32  67 VRB3      30.01R
Teterboro      CLOUDY    41  31  67 NE3       30.00S
Caldwell       CLOUDY    39  30  70 E6        30.01S WCI  35
Somerville     CLOUDY    31  29  92 CALM      29.98S
Linden         CLOUDY    41  31  69 CALM      30.01R
Sussex         CLOUDY    33  33 100 CALM      29.98S
Andover          N/A     31  29  92 CALM      29.98R
Trenton        PTCLDY    30  29  96 NW3       29.99S
Millville      CLOUDY    32  32 100 CALM      30.00S
Atlantic City  PTCLDY    32  29  88 CALM      30.01R
Wrightstown    CLOUDY    29  27  94 CALM      29.97S
Toms River     CLOUDY    27  26  96 CALM      30.01S
Belmar         CLOUDY    39  35  86 NE5       30.00S
$$

PAZ047>061-062-071-201400-
EASTERN PENNSYLVANIA

CITY           SKY/WX    TMP DP  RH WIND       PRES   REMARKS
Philadelphia   CLOUDY    35  33  92 CALM      30.01S
Allentown      CLOUDY    28  26  92 CALM      29.99S FOG
Scranton       CLOUDY    37  32  82 VRB3      29.92F
$$

CTZ002-004>006-009-010-012-RIZ004-006-007-MAZ004-011-015-201400-
SOUTHERN NEW ENGLAND
 IN CT

CITY           SKY/WX    TMP DP  RH WIND       PRES   REMARKS
Bradley INTL   CLOUDY    36  31  82 CALM      30.02R
Hartford       CLOUDY    35  32  88 CALM      30.02S
Danbury        CLOUDY    36  30  79 CALM      30.01R
Wtrbury/Oxford CLOUDY    36  28  75 CALM      30.00S
Bridgeport     CLOUDY    40  32  73 CALM      30.02R
Meriden        CLOUDY    38  32  79 CALM      30.01S
New Haven      CLOUDY    38  33  82 CALM      30.01S
Chester        CLOUDY    37  30  75 CALM      30.00S
Groton         CLOUDY    38  31  76 CALM      30.02S
Wilimantic     CLOUDY    34  31  88 CALM      30.03R

 IN RI

CITY           SKY/WX    TMP DP  RH WIND       PRES   REMARKS
Providence     CLOUDY    32  28  85 W3        30.03R
Block Island   NOT AVBL
Westerly       CLOUDY    38  29  70 N3        30.03S
 IN MA

CITY           SKY/WX    TMP DP  RH WIND       PRES   REMARKS
Boston         CLOUDY    36  30  79 N5        30.03R WCI  32
Worcester      CLOUDY    32  26  78 N3        29.98S
Westfield      CLOUDY    34  32  92 CALM      30.01R
Provincetown   CLOUDY    40  31  70 NE6       30.01F
Nantucket      CLOUDY    38  33  82 NW8       30.00R WCI  32
$$

ANZ330-335-338-340-345-350-353-355-201400-
COASTAL MARINE OBSERVATIONS


STATION/POSITION TIME  SKY/WX   TEMP    WIND        PRES    VSBY  WAVE
                                AIR SEA DIR/SP/G                  HT/PER
                 (UTC)          (F)     (DEG/KT/KT) (MB)    (MI)  (FT/S)
NY HARB ENTRANCE 1150            42 44   60/ 10/ 10 1015.7          4/13
20 S FIRE ISLAND 1150            43 45   40/ 10/ 12 1015.6          5/12
GREAT SOUTH BAY  NOT AVBL
23 SSW MONTAUK P 1150            43 48   30/  4/  6 1016.7          4/11
15 E BARNEGAT LI 1230               47                N/A           5/10
HUDSON CANYON    1150            48 51              1015.5          6/11
KINGS POINT      1230            39 39              1016.0
EXECUTION ROCKS  1245            39      40/  6/  8   N/A
CENTRAL LI SOUND 1230            40     220/  2/  4   N/A           0
EASTERN LI SOUND NOT AVBL
ROBBINS REEF     1230            40      70/  5/  6 1016.4
$$


>>>>>>>>>>>>>>>>>>>>>>>>>>>> KEY <<<<<<<<<<<<<<<<<<<<<<<<<<<
>                                                          <
>     SKY/WX - Sky Condition/Present Weather               <
>     TMP    - Temperature in Fahrenheit                   <
>     DP     - Dew Point in Fahrenheit                     <
>     RH     - Relative Humidity in Percent                <
>     WIND   - Direction (from) and Speed in MPH           <
>     PRES   - Mean Sea Level Pressure (inches of Hg)      <
>     WCI    - Wind Chill Index                            <
>     VSB    - VISIBILITY IN MILES                         <
>     HX     - HEAT INDEX                                  <
>     TC     - TEMPERATURE IN CELSIUS                      <
>     VRB    - VARIABLE WIND DIRECTION                     <
>                                                          <
>>>>>>>>>>>>>>>>>>>>>>>>>>>> KEY <<<<<<<<<<<<<<<<<<<<<<<<<<<




USA.gov is the U.S. government's official web portal to all federal, state and local government web resources and services.